LEMUR-2-DEMBITZ

Last updated on Feb. 14, 2018, 4:20 p.m. UTC

1 42842U 17042T   18045.49310077  .00000725  00000-0  77472-4 0  9998
2 42842  97.6069 312.6472 0011370 242.4015 117.6050 14.91632869 32075
UTC
Height (km)
Latitude
Longitude
Inclination
Orbital Period
UTC large
Height (km)
Speed (km/s)
/
Latitude / Longitude
Inclination (degrees)
Orbital Period (minutes)
Azimuth
Elevation
Range (km)
Doppler Factor
iOS Compass Heading
iOS Angle